Content
SEND FEEDBACK

Daily
Averages
Monthly
Summary
United States of America

ORANGE, TEXAS


Home > North America > United States > Texas
Elevation: 1 foot     Latitude: 30 07N     Longitude: 093 47W

WEATHER
 
SELECT A DAY
Number of Records: 117,412;   Date Range: 8/25/05 - 11/26/14
 
SHARE

PRINT THIS DATA

[ ← Previous Day ]
WEATHER ALMANAC - FEBRUARY 8, 2014
[ Next Day → ]
[ °C ]   °F
Weather ElementAverageHighLow
Temperature46.3 °F55.4 °F (3:15 pm)38.3 °F (12:35 am)
Dewpoint40.8 °F47.8 °F (11:55 pm)34.7 °F (1:15 am)
Humidity81.5 %92 % (11:15 pm)67 % (1:55 pm)
Barometer30.20 in30.27 in (9:55 am)30.15 in (4:15 pm)
Wind Speed3.1 mph6.9 mph (5:35 pm)
Weather ElementAverage
Visibility9.7 mi
Wind DirectionESE (116.2 °)

Weather ElementTotal
Precipitation---
Heating Degree Days18.2 (Base 65)
Averaged from 71 records on February 8, 2014
WEATHER CONDITIONS BREAKOUT
WIND DIRECTION BREAKOUT
WEATHER BY HOUR - FEBRUARY 8, 2014
[ °C ]   °F
Local TimeTemperatureDewpointHumidityBarometerVisibilityWind DirectionWind SpeedGust SpeedPrecipitationEventsConditions
12:35 AM38.3 °F34.9 °F87 %30.24 in10.0 miNNE (30°)4.6 mphOvercast
12:55 AM38.3 °F34.9 °F87 %30.24 in10.0 miNorth (10°)4.6 mphOvercast
1:15 AM38.3 °F34.7 °F87 %30.23 in10.0 miNorth (10°)5.8 mphOvercast
1:35 AM38.5 °F34.9 °F87 %30.24 in10.0 miNorth (10°)3.5 mphOvercast
1:55 AM38.3 °F34.9 °F87 %30.25 in10.0 miNorth (350°)5.8 mphOvercast
2:15 AM38.3 °F34.7 °F87 %30.23 in10.0 miNNE (20°)4.6 mphOvercast
2:35 AM38.5 °F34.7 °F86 %30.24 in10.0 miNorth (350°)3.5 mphOvercast
2:55 AM38.5 °F34.7 °F86 %30.24 in10.0 miNorth (350°)3.5 mphOvercast
3:15 AM38.5 °F35.2 °F88 %30.24 in10.0 miNorth (360°)3.5 mphOvercast
3:35 AM38.5 °F35.2 °F88 %30.24 in10.0 miNorth (350°)3.5 mphOvercast
3:55 AM38.5 °F35.6 °F89 %30.23 in10.0 miNorth (350°)3.5 mphOvercast
4:15 AM38.5 °F35.6 °F89 %30.24 in10.0 miNNW (340°)3.5 mphOvercast
4:35 AM38.7 °F35.6 °F89 %30.24 in10.0 miNorth (350°)3.5 mphOvercast
4:55 AM38.7 °F35.6 °F89 %30.23 in10.0 miNorth (360°)5.8 mphOvercast
5:15 AM38.7 °F35.8 °F89 %30.23 in10.0 miNorth (360°)3.5 mphOvercast
5:35 AM38.7 °F35.8 °F89 %30.22 in10.0 miNorth (360°)4.6 mphOvercast
5:55 AM38.8 °F35.6 °F88 %30.21 in10.0 miNorth (10°)4.6 mphOvercast
6:15 AM39.2 °F35.6 °F87 %30.22 in10.0 miCalmOvercast
6:35 AM39.2 °F35.6 °F87 %30.23 in10.0 miNNE (20°)3.5 mphOvercast
6:55 AM39.6 °F35.6 °F86 %30.23 in10.0 miCalmOvercast
7:15 AM39.7 °F36.1 °F87 %30.23 in10.0 miENE (60°)3.5 mphOvercast
7:35 AM40.1 °F36.1 °F86 %30.24 in10.0 miNE (40°)4.6 mphOvercast
7:55 AM40.5 °F36.1 °F85 %30.24 in10.0 miCalmOvercast
8:15 AM41.0 °F36.5 °F84 %30.24 in10.0 miNE (50°)5.8 mphOvercast
8:35 AM41.7 °F36.9 °F83 %30.25 in10.0 miEast (80°)4.6 mphOvercast
8:55 AM42.1 °F37.2 °F83 %30.26 in10.0 miCalmOvercast
9:15 AM43.0 °F37.4 °F81 %30.25 in10.0 miNE (40°)4.6 mphOvercast
9:35 AM43.9 °F37.8 °F79 %30.26 in10.0 miEast (80°)4.6 mphOvercast
9:55 AM44.2 °F37.9 °F79 %30.27 in10.0 miCalmOvercast
10:15 AM44.8 °F38.3 °F78 %30.27 in10.0 miCalmOvercast
10:35 AM45.7 °F39.0 °F78 %30.27 in10.0 miCalmOvercast
10:55 AM46.6 °F39.4 °F76 %30.26 in10.0 miCalmOvercast
11:15 AM47.7 °F39.7 °F74 %30.26 in10.0 miEast (80°)3.5 mphOvercast
11:35 AM49.1 °F40.3 °F72 %30.25 in10.0 miCalmOvercast
11:55 AM50.0 °F40.3 °F69 %30.24 in10.0 miSouth (170°)4.6 mphOvercast
12:15 PM50.9 °F40.8 °F68 %30.23 in10.0 miCalmOvercast
12:35 PM50.9 °F41.4 °F70 %30.21 in10.0 miESE (120°)3.5 mphOvercast
12:55 PM52.0 °F42.1 °F69 %30.20 in10.0 miSSE (160°)3.5 mphOvercast
1:15 PM52.7 °F42.3 °F68 %30.18 in10.0 miEast (90°)3.5 mphOvercast
1:35 PM53.1 °F43.0 °F69 %30.18 in10.0 miENE (70°)3.5 mphOvercast
1:55 PM53.6 °F43.0 °F67 %30.17 in10.0 miENE (70°)3.5 mphOvercast
2:15 PM54.1 °F43.7 °F68 %30.16 in10.0 miCalmOvercast
2:35 PM54.1 °F44.1 °F69 %30.16 in10.0 miCalmOvercast
2:55 PM54.0 °F44.6 °F71 %30.16 in10.0 miCalmOvercast
3:15 PM55.4 °F45.0 °F68 %30.16 in10.0 miCalmOvercast
3:35 PM55.4 °F45.1 °F68 %30.16 in10.0 miSW (230°)4.6 mphOvercast
3:55 PM55.4 °F45.5 °F69 %30.16 in10.0 miSouth (180°)5.8 mphOvercast
4:15 PM54.9 °F45.3 °F70 %30.15 in10.0 miSouth (180°)5.8 mphOvercast
4:35 PM54.7 °F45.3 °F71 %30.15 in10.0 miSouth (190°)4.6 mphMostly Cloudy
4:55 PM54.3 °F45.5 °F72 %30.15 in10.0 miSouth (180°)5.8 mphScattered Clouds
5:15 PM53.1 °F45.1 °F74 %30.15 in10.0 miSSE (160°)4.6 mphScattered Clouds
5:35 PM52.7 °F45.0 °F75 %30.15 in10.0 miSouth (170°)6.9 mphClear
5:55 PM50.7 °F44.2 °F78 %30.15 in10.0 miSouth (170°)5.8 mphClear
6:15 PM49.1 °F43.9 °F82 %30.16 in10.0 miSouth (170°)5.8 mphMostly Cloudy
6:35 PM48.7 °F44.2 °F84 %30.16 in10.0 miSouth (170°)5.8 mphOvercast
6:55 PM49.1 °F44.6 °F84 %30.16 in10.0 miSouth (180°)5.8 mphOvercast
7:15 PM49.5 °F45.1 °F85 %30.16 in10.0 miSouth (170°)3.5 mphOvercast
7:35 PM49.6 °F45.5 °F86 %30.16 in10.0 miSouth (170°)4.6 mphOvercast
7:55 PM50.0 °F45.5 °F85 %30.16 in10.0 miSouth (170°)4.6 mphOvercast
8:15 PM49.6 °F45.5 °F86 %30.16 in10.0 miSouth (180°)3.5 mphOvercast
8:35 PM49.6 °F45.7 °F86 %30.17 in10.0 miSouth (180°)3.5 mphOvercast
8:55 PM49.6 °F45.9 °F87 %30.17 in7.0 miCalmOvercast
9:15 PM50.0 °F46.2 °F87 %30.17 in10.0 miCalmOvercast
9:35 PM49.6 °F46.4 °F89 %30.18 in10.0 miCalmOvercast
9:55 PM50.0 °F46.6 °F88 %30.19 in7.0 miCalmOvercast
10:15 PM49.6 °F46.8 °F90 %30.19 in10.0 miCalmOvercast
10:35 PM50.0 °F46.9 °F89 %30.19 in7.0 miCalmOvercast
10:55 PM49.6 °F46.9 °F90 %30.17 in7.0 miSSE (150°)5.8 mphOvercast
11:15 PM49.6 °F47.3 °F92 %30.17 in7.0 miCalmOvercast
11:35 PM49.8 °F47.5 °F92 %30.17 in7.0 miCalmOvercast
11:55 PM50.0 °F47.8 °F92 %30.16 in7.0 miSSE (150°)3.5 mphOvercast
Hourly data recorded from KORG, located miles away from Orange, Texas







STORIES FROM OUR PARTNERS